Wetbulb
55.08 56.69 55.70 55.33 56.16 63.42 65.11 66.00 66.06 66.04 66.00 65.47 64.81 64.77 64.54 65.47 65.37 66.10 66.74 66.97 66.26 66.12 65.49 65.34 66.16 65.69 65.11 64.76 64.81 63.96 63.38 62.85 63.61 62.91 60.83 61.44 62.34 62.31 62.37 62.18 60.80 59.98 60.15
54.01 54.12 54.51 54.47 53.92 55.39 63.05 65.07 65.93 66.11 66.15 66.05 65.94 65.87 65.54 66.07 66.35 66.89 67.34 67.13 67.16 66.83 66.02 65.43 65.41 65.78 65.43 65.23 64.83 64.52 63.22 63.06 63.71 61.16 60.27 57.34 57.68 59.36 59.83 60.15 58.98 57.69 57.46
52.81 53.01 52.58 52.98 53.37 53.23 55.56 62.49 65.21 66.03 66.21 66.35 66.19 65.81 65.24 65.33 65.15 65.70 65.72 66.47 66.77 66.63 66.79 66.45 65.99 65.87 65.90 65.25 65.10 64.22 63.26 62.00 62.40 62.78 60.10 56.22 53.77 54.94 56.71 56.92 57.24 56.57 55.67
50.92 53.04 52.53 51.73 52.28 52.45 53.89 54.46 58.90 64.16 65.68 66.24 65.46 64.20 62.40 62.12 63.64 63.86 64.31 61.76 58.79 57.88 58.18 58.97 62.24 65.02 64.70 63.76 62.13 62.69 62.16 62.22 60.75 61.25 61.59 60.50 59.51 55.72 53.26 55.14 56.10 55.74 54.39
50.33 50.69 52.03 52.67 52.55 53.26 52.81 53.55 54.61 56.26 59.88 62.94 64.37 63.06 62.00 62.32 56.43 54.88 54.64 54.27 54.46 55.52 56.36 56.03 55.96 55.97 56.36 56.89 57.72 57.70 58.03 58.30 57.24 57.55 57.72 56.65 58.14 58.13 56.00 52.87 52.52 55.73 55.69
49.69 51.04 52.80 52.81 52.44 53.18 53.44 52.82 53.26 53.78 54.61 55.70 57.39 59.40 60.06 53.87 52.39 52.14 51.93 52.27 53.11 55.15 55.54 55.66 55.04 55.22 55.67 56.06 56.72 57.24 56.82 56.61 55.62 55.88 56.41 55.92 55.70 54.79 54.35 53.00 52.23 51.80 54.48
48.27 49.88 51.52 51.69 51.74 51.51 52.82 52.62 51.76 51.55 53.21 53.55 53.50 54.03 53.82 52.77 52.64 52.11 51.71 51.43 51.35 52.59 54.00 54.07 53.36 53.36 53.88 54.31 54.53 54.74 55.55 55.95 54.49 55.88 56.24 56.78 56.00 56.27 55.77 54.19 52.54 50.93 53.76
45.17 45.33 46.31 49.40 50.67 52.53 52.39 52.22 51.83 51.07 51.87 52.55 52.87 53.28 53.14 52.49 52.05 52.43 51.95 51.15 51.11 51.62 51.60 51.34 51.36 51.37 51.59 51.63 52.36 52.97 54.03 55.25 55.09 54.31 54.62 55.74 56.02 55.45 54.42 53.49 52.50 50.32 49.80
43.82 43.80 44.82 45.70 46.41 51.38 51.90 51.66 51.29 51.49 51.83 52.27 51.64 51.94 52.06 52.03 51.10 52.17 51.28 50.87 50.11 50.04 48.16 49.07 48.92 49.11 49.33 49.99 50.71 51.66 52.29 53.46 52.91 53.49 52.92 52.41 51.36 51.94 53.14 54.13 53.79 52.40 48.10
44.75 44.83 44.87 45.08 46.35 48.37 51.20 52.05 51.29 49.93 50.39 50.34 50.82 50.92 51.46 51.77 51.45 51.13 50.34 49.90 48.13 47.94 47.29 47.13 47.17 47.39 47.76 48.42 48.93 49.89 51.19 51.62 51.21 51.47 50.95 50.12 50.29 50.27 50.90 51.11 51.51 51.34 50.50
44.51 45.01 45.35 45.81 46.39 48.47 49.47 49.68 50.08 49.62 49.27 49.66 48.63 48.92 48.81 49.73 50.06 50.04 48.88 47.99 46.97 46.35 45.99 45.72 45.52 45.37 45.24 45.84 46.67 49.43 49.28 49.25 48.50 48.29 47.98 47.48 49.03 48.65 47.96 47.43 47.48 46.23 47.90
45.40 45.87 45.71 45.58 45.94 46.82 47.69 47.56 47.39 47.47 48.13 48.77 48.48 48.19 48.04 47.51 47.50 47.53 47.37 46.72 46.14 45.52 44.61 44.33 44.14 44.14 43.98 44.06 44.10 45.15 45.38 47.89 47.22 47.30 46.84 45.76 47.29 45.43 45.06 44.43 42.62 42.72 40.88
44.15 45.48 45.48 45.05 44.98 45.62 46.12 46.10 45.92 46.37 46.74 46.51 46.05 46.20 46.05 46.15 46.06 45.85 45.51 45.45 44.68 44.09 43.72 43.17 42.51 42.04 41.94 41.74 41.70 42.38 42.56 41.88 41.30 41.50 41.14 40.82 41.43 39.72 39.86 40.86 41.37 39.63 41.34
44.49 44.04 45.26 45.07 45.21 45.68 45.62 45.62 45.29 45.13 44.46 44.70 44.41 43.99 44.23 44.81 44.36 44.96 44.61 44.54 44.34 43.48 43.01 42.27 41.45 40.84 40.24 40.39 40.55 41.21 40.39 40.08 40.47 40.45 39.26 39.01 39.03 40.82 40.57 40.47 39.98 40.36 39.32
43.65 43.64 44.26 45.45 45.43 45.46 45.82 45.89 45.29 44.84 44.32 43.55 42.97 42.59 42.74 42.66 43.04 42.90 42.64 43.03 42.41 42.03 41.64 40.70 41.09 41.72 41.17 41.20 40.86 41.36 41.19 40.35 39.54 39.05 39.59 39.71 40.24 41.62 41.08 39.02 38.32 38.24 36.59
44.18 44.87 44.50 45.95 46.38 45.84 45.68 45.96 45.17 44.40 44.39 43.23 42.87 43.37 42.74 42.05 41.29 40.95 40.70 40.10 40.08 39.95 39.94 40.78 40.70 40.26 40.59 41.11 41.67 40.94 39.71 39.54 38.10 36.51 35.18 35.87 36.97 38.06 39.35 38.76 38.00 36.68 34.85
42.73 43.25 43.73 44.11 45.95 46.32 46.87 45.42 45.22 44.77 43.77 43.22 43.52 43.04 42.35 41.41 40.90 42.02 41.55 38.46 37.53 39.62 39.40 39.46 39.62 39.28 39.71 41.59 40.93 41.18 37.65 35.85 34.38 34.02 31.63 32.40 33.81 32.62 30.49 34.39 36.36 35.76 36.17
42.21 42.58 43.27 44.00 44.89 46.99 46.65 46.11 45.58 43.96 43.07 42.76 42.67 42.39 41.59 40.53 40.21 40.87 39.86 37.76 39.06 38.65 38.25 38.28 38.65 38.16 38.52 39.75 38.83 38.13 33.76 32.72 31.51 31.43 31.09 29.21 28.88 30.39 30.90 29.72 29.25 29.56 30.55
42.47 42.43 43.21 43.28 43.37 45.05 46.35 45.57 44.06 43.17 42.41 41.97 41.68 41.56 40.84 39.55 39.11 39.22 37.06 37.37 37.66 37.20 36.72 37.36 37.17 36.13 36.10 37.42 36.66 32.17 29.11 29.74 29.39 29.65 31.16 32.57 31.93 34.68 33.79 29.72 27.42 26.57 28.77
42.73 42.17 41.90 42.80 43.11 43.50 45.22 44.35 42.78 42.04 41.04 41.57 41.41 41.16 40.23 39.16 39.08 38.55 36.08 36.95 36.77 34.85 35.15 33.80 33.84 36.93 33.25 36.79 35.20 32.57 29.59 28.44 28.14 28.58 30.65 34.09 33.05 34.59 34.20 28.95 25.65 24.50 25.35
42.32 42.31 41.37 41.51 42.53 43.69 43.38 42.16 41.24 39.63 41.37 41.89 41.25 40.24 39.44 39.38 38.44 35.34 35.43 35.86 34.73 33.81 33.26 32.88 32.61 31.17 33.02 32.22 35.43 34.64 28.35 27.41 26.60 26.42 26.92 29.02 33.65 33.44 33.06 32.80 27.01 27.25 27.53
42.62 41.31 40.27 41.22 41.67 42.11 42.21 41.08 40.22 41.57 41.77 40.85 39.86 38.93 38.52 39.31 37.96 35.64 34.65 34.40 33.49 32.55 32.53 31.81 30.28 31.10 31.37 35.70 35.96 35.20 33.37 32.38 27.59 26.91 27.36 28.19 32.97 32.54 32.47 31.83 32.78 31.24 30.41
42.39 41.24 39.88 40.48 40.26 40.67 40.98 40.26 40.38 40.32 39.77 38.82 37.76 37.75 38.91 37.82 36.65 35.01 34.17 33.25 33.07 32.23 31.84 31.33 28.65 28.26 29.36 29.77 36.52 37.11 36.18 35.05 30.14 27.13 29.73 32.17 32.67 31.56 29.81 31.40 32.33 31.40 26.46
39.72 41.39 39.74 39.16 38.92 39.72 40.35 40.59 40.18 39.85 38.70 37.13 36.38 37.99 37.31 36.27 35.53 34.66 34.16 33.21 32.22 31.97 32.13 30.35 27.74 27.41 27.51 27.13 28.11 31.05 31.73 35.90 33.81 32.50 27.95 30.30 31.15 31.40 28.90 27.89 27.40 25.87 24.63
39.35 41.35 39.99 41.00 39.93 39.48 39.46 39.53 39.50 38.83 37.49 36.73 35.90 36.59 36.34 36.42 34.02 33.86 33.45 32.93 33.77 34.35 32.83 30.57 28.95 28.13 26.47 27.21 29.74 29.54 29.33 29.54 31.29 29.76 27.25 26.75 26.52 25.85 25.15 24.31 24.16 23.99 23.76
39.27 40.76 40.84 40.23 41.13 41.02 39.75 38.69 39.01 38.44 38.18 36.75 36.09 35.92 35.16 35.32 33.49 32.51 32.44 36.61 36.29 37.49 38.11 36.85 31.97 29.55 32.79 34.48 34.46 33.87 33.50 34.25 34.17 28.76 26.25 25.78 25.82 25.61 25.34 24.52 23.95 23.39 24.25
MSLP
1010.88 1011.24 1011.67 1012.08 1012.49 1012.78 1013.24 1013.65 1014.19 1014.56 1014.91 1015.26 1015.77 1016.09 1016.29 1016.41 1016.50 1016.47 1016.47 1016.60 1016.98 1017.23 1017.66 1018.11 1018.18 1018.26 1018.72 1019.02 1019.23 1019.37 1019.56 1019.62 1019.56 1019.90 1019.95 1019.77 1019.47 1019.23 1018.99 1018.62 1018.69 1018.76 1018.81
1010.92 1011.51 1011.57 1011.90 1012.31 1012.59 1012.98 1013.40 1013.82 1014.24 1014.65 1015.11 1015.49 1015.92 1016.15 1016.29 1016.29 1016.38 1016.34 1016.67 1016.87 1017.09 1017.37 1017.82 1018.25 1018.29 1018.76 1018.91 1019.19 1019.34 1019.49 1019.53 1019.57 1019.97 1020.13 1019.88 1019.51 1019.06 1018.54 1018.57 1018.82 1019.02 1018.91
1010.56 1011.19 1011.34 1011.74 1012.12 1012.45 1012.77 1013.30 1013.48 1013.88 1014.39 1014.87 1015.38 1015.83 1016.12 1016.25 1016.33 1016.41 1016.58 1016.80 1017.08 1017.28 1017.45 1017.82 1018.16 1018.42 1018.76 1019.05 1019.25 1019.44 1019.56 1019.65 1019.60 1019.59 1020.04 1019.94 1019.68 1019.52 1018.97 1018.92 1018.93 1019.16 1019.30
1010.72 1011.04 1011.62 1011.90 1012.32 1012.55 1012.50 1013.03 1013.36 1013.65 1013.94 1014.42 1014.96 1015.50 1015.80 1016.27 1016.39 1016.54 1016.78 1017.23 1017.35 1017.59 1017.69 1017.99 1018.12 1018.38 1018.72 1019.04 1019.25 1019.38 1019.53 1019.72 1019.72 1019.67 1019.60 1019.66 1019.74 1019.87 1019.64 1019.36 1019.30 1019.18 1019.36
1010.72 1010.85 1011.38 1011.90 1012.35 1012.69 1012.88 1012.84 1013.12 1013.63 1014.12 1014.32 1014.48 1015.17 1015.74 1016.12 1016.42 1016.81 1017.14 1017.45 1017.70 1017.82 1018.01 1018.28 1018.47 1018.71 1018.94 1019.11 1019.22 1019.31 1019.44 1019.58 1019.78 1019.82 1019.82 1019.80 1019.68 1019.77 1020.05 1019.86 1019.76 1019.57 1019.42
1010.53 1010.79 1011.23 1011.78 1012.19 1012.74 1013.42 1013.54 1013.47 1013.80 1014.07 1014.56 1015.10 1015.12 1015.53 1016.11 1016.64 1017.10 1017.37 1017.61 1017.82 1018.08 1018.24 1018.50 1018.71 1018.88 1019.09 1019.26 1019.30 1019.35 1019.41 1019.51 1019.60 1019.76 1019.80 1019.82 1019.77 1019.71 1019.89 1020.11 1020.15 1020.05 1019.69
1010.21 1010.65 1011.19 1011.58 1012.20 1012.97 1013.42 1013.87 1013.89 1013.92 1014.08 1014.40 1014.92 1015.41 1015.30 1015.61 1016.33 1016.96 1017.40 1017.86 1018.06 1018.28 1018.50 1018.63 1018.95 1019.11 1019.20 1019.28 1019.30 1019.36 1019.39 1019.36 1019.41 1019.44 1019.51 1019.40 1019.41 1019.34 1019.54 1019.77 1019.87 1020.11 1019.87
1010.52 1010.75 1011.05 1011.42 1011.67 1012.20 1012.95 1013.87 1014.00 1014.12 1014.25 1014.39 1014.80 1015.25 1015.09 1015.68 1016.38 1016.63 1017.38 1017.81 1018.12 1018.50 1018.64 1018.88 1019.01 1019.19 1019.32 1019.37 1019.34 1019.35 1019.29 1019.22 1019.22 1019.27 1019.34 1019.19 1019.17 1019.16 1019.16 1019.29 1019.62 1020.11 1020.18
1011.20 1011.27 1011.32 1011.60 1012.21 1012.57 1012.98 1013.33 1013.69 1014.02 1014.23 1014.26 1014.82 1015.19 1015.22 1015.44 1016.56 1016.95 1017.37 1017.73 1018.35 1018.59 1018.80 1018.91 1019.16 1019.22 1019.38 1019.41 1019.34 1019.34 1019.27 1019.11 1019.20 1019.25 1019.44 1019.37 1019.43 1019.40 1019.29 1019.28 1019.34 1019.65 1019.79
1011.92 1011.92 1011.93 1011.99 1012.22 1012.58 1012.78 1013.27 1013.70 1014.07 1014.28 1014.68 1014.86 1015.41 1015.07 1015.60 1016.26 1016.91 1017.49 1018.03 1018.44 1018.68 1018.90 1019.06 1019.21 1019.27 1019.25 1019.20 1019.31 1019.35 1019.39 1019.38 1019.39 1019.36 1019.56 1019.60 1019.70 1019.76 1019.57 1019.37 1019.39 1019.72 1019.68
1012.04 1012.23 1012.46 1012.45 1012.53 1012.78 1012.98 1013.35 1013.57 1014.14 1014.63 1014.83 1015.29 1015.92 1016.22 1015.75 1016.16 1017.00 1017.59 1017.92 1018.24 1018.66 1018.82 1019.02 1019.18 1019.34 1019.35 1019.27 1019.23 1019.31 1019.60 1019.56 1019.66 1019.65 1019.64 1019.75 1019.63 1019.85 1020.08 1019.88 1019.76 1020.06 1020.36
1011.96 1012.19 1012.42 1012.74 1013.04 1013.41 1013.46 1013.70 1014.03 1014.23 1014.87 1015.01 1015.56 1015.76 1015.83 1016.35 1016.61 1017.16 1017.68 1017.94 1018.46 1018.65 1018.88 1018.98 1019.16 1019.39 1019.38 1019.44 1019.34 1019.40 1019.51 1019.55 1019.67 1019.84 1019.82 1019.83 1019.74 1020.00 1020.16 1020.28 1020.60 1020.62 1020.75
1011.83 1012.22 1012.60 1013.06 1013.33 1013.60 1013.66 1013.88 1014.11 1014.40 1014.92 1015.33 1015.87 1015.95 1016.33 1016.56 1017.03 1017.40 1017.76 1018.15 1018.42 1018.78 1018.85 1019.10 1019.28 1019.57 1019.76 1019.56 1019.53 1019.68 1019.69 1019.85 1020.11 1020.34 1020.34 1020.32 1020.32 1020.52 1020.59 1020.83 1020.95 1021.27 1021.11
1011.92 1012.06 1012.37 1012.64 1013.03 1013.46 1013.81 1014.02 1014.41 1014.92 1015.38 1015.56 1015.83 1016.23 1016.59 1016.89 1017.06 1017.57 1017.85 1018.22 1018.49 1018.75 1018.99 1019.29 1019.49 1019.73 1020.00 1020.03 1019.80 1019.76 1020.12 1020.38 1020.82 1020.88 1020.92 1020.63 1020.78 1020.89 1021.14 1021.27 1021.31 1021.40 1021.55
1012.06 1011.94 1011.94 1012.15 1012.44 1013.03 1013.52 1013.79 1014.28 1014.73 1015.17 1015.75 1016.19 1016.48 1016.76 1017.06 1017.31 1017.63 1018.22 1018.40 1018.66 1018.91 1019.20 1019.45 1019.68 1019.88 1019.98 1020.24 1020.10 1020.07 1020.37 1020.45 1021.04 1021.40 1021.77 1021.49 1021.18 1021.11 1021.07 1021.26 1021.33 1021.65 1021.89
1012.47 1012.06 1011.83 1011.67 1012.00 1012.48 1013.12 1013.64 1014.10 1014.69 1015.23 1015.75 1016.11 1016.36 1016.65 1017.04 1017.42 1017.96 1018.54 1018.75 1018.99 1019.19 1019.40 1019.60 1019.64 1019.87 1020.10 1020.23 1020.33 1020.27 1020.80 1020.62 1021.19 1021.48 1021.96 1022.20 1022.44 1022.05 1021.65 1021.56 1021.60 1021.68 1021.87
1012.85 1012.50 1012.21 1011.76 1011.36 1011.74 1012.21 1012.99 1013.64 1014.22 1014.78 1015.30 1015.60 1015.99 1016.39 1016.98 1017.46 1017.88 1018.44 1018.99 1019.16 1019.47 1019.68 1019.77 1019.85 1019.97 1020.24 1020.41 1020.38 1020.41 1021.05 1021.33 1021.43 1021.67 1022.03 1022.20 1022.65 1022.62 1022.56 1022.18 1022.11 1021.91 1021.93
1012.95 1012.67 1012.23 1011.74 1011.00 1010.78 1011.35 1012.09 1012.92 1013.78 1014.40 1014.95 1015.31 1015.77 1016.34 1016.91 1017.38 1017.92 1018.49 1019.06 1019.23 1019.49 1019.83 1019.95 1020.01 1020.20 1020.39 1020.65 1020.75 1020.91 1021.31 1021.96 1022.07 1021.83 1021.83 1022.58 1022.66 1022.53 1022.38 1022.67 1022.59 1022.37 1022.55
1013.11 1012.74 1012.45 1012.10 1011.21 1010.67 1010.79 1011.70 1012.67 1013.34 1014.05 1014.60 1015.00 1015.57 1016.17 1016.83 1017.40 1017.99 1018.57 1018.88 1019.19 1019.54 1019.85 1019.95 1020.21 1020.36 1020.53 1020.96 1021.17 1021.31 1021.52 1021.92 1022.23 1021.79 1022.01 1022.35 1022.36 1022.37 1022.35 1022.58 1022.92 1022.42 1022.85
1013.07 1012.89 1012.66 1012.15 1011.55 1010.97 1010.85 1011.57 1012.50 1013.15 1013.86 1014.32 1014.81 1015.27 1015.83 1016.52 1017.14 1017.86 1018.41 1018.66 1019.04 1019.48 1019.86 1020.13 1020.25 1020.52 1020.84 1021.13 1021.07 1021.03 1021.50 1021.84 1022.06 1022.05 1021.96 1022.07 1022.23 1022.12 1022.36 1022.78 1022.69 1022.71 1022.94
1012.95 1012.92 1012.85 1012.39 1011.89 1011.37 1011.20 1011.95 1012.64 1013.18 1013.66 1014.22 1014.74 1015.22 1015.70 1016.27 1017.00 1017.82 1018.34 1018.63 1019.08 1019.58 1019.93 1020.28 1020.59 1020.72 1020.71 1020.64 1020.66 1021.03 1021.31 1021.43 1021.64 1021.85 1022.04 1022.07 1021.99 1022.21 1022.48 1022.54 1022.66 1022.68 1022.90
1012.90 1012.75 1012.81 1012.50 1012.16 1012.05 1011.98 1012.38 1012.82 1013.17 1013.65 1014.17 1014.76 1015.32 1015.66 1016.17 1016.98 1017.71 1018.21 1018.62 1019.08 1019.55 1019.84 1020.17 1020.46 1020.37 1020.44 1020.43 1020.63 1020.87 1020.93 1021.05 1021.44 1021.72 1021.76 1021.83 1022.00 1022.23 1022.33 1022.42 1022.52 1022.52 1022.89
1013.03 1012.58 1012.69 1012.56 1012.38 1012.37 1012.46 1012.68 1012.91 1013.37 1013.87 1014.38 1014.83 1015.19 1015.62 1016.28 1016.95 1017.58 1017.98 1018.45 1018.69 1019.10 1019.37 1019.55 1019.84 1020.06 1020.16 1020.22 1020.30 1020.43 1020.68 1020.98 1021.31 1021.44 1021.60 1021.76 1021.91 1022.11 1022.25 1022.47 1022.32 1022.28 1022.91
1013.14 1012.59 1012.57 1012.59 1012.47 1012.41 1012.55 1012.65 1012.78 1013.18 1013.78 1014.33 1014.77 1015.10 1015.61 1016.16 1016.71 1017.17 1017.53 1017.89 1018.38 1018.53 1018.79 1019.15 1019.54 1019.79 1019.96 1019.96 1019.97 1020.09 1020.30 1020.56 1020.96 1021.27 1021.54 1021.76 1021.86 1022.12 1022.33 1022.31 1022.29 1022.50 1022.79
1013.24 1012.63 1012.32 1012.34 1012.26 1012.10 1012.32 1012.60 1012.78 1013.12 1013.59 1014.08 1014.51 1014.90 1015.40 1015.94 1016.42 1016.67 1016.92 1017.31 1017.53 1017.88 1018.20 1018.52 1018.91 1019.18 1019.29 1019.26 1019.37 1019.67 1019.95 1020.17 1020.52 1021.06 1021.45 1021.75 1021.91 1022.09 1022.28 1022.40 1022.42 1022.44 1022.55
1013.22 1012.59 1012.03 1012.03 1012.10 1012.01 1011.96 1012.31 1012.64 1012.97 1013.47 1013.82 1014.27 1014.67 1015.08 1015.26 1015.95 1016.44 1016.65 1016.83 1017.09 1017.45 1017.68 1017.91 1018.18 1018.42 1018.48 1018.58 1018.82 1019.07 1019.40 1019.78 1020.24 1020.74 1021.11 1021.30 1021.46 1021.73 1021.90 1022.01 1022.06 1022.06 1022.17
Wind_Speed
10 11 9 9 6 6 8 10 8 7 5 3 3 2 3 2 2 3 5 5 5 6 6 3 3 3 2 3 3 3 4 3 3 3 3 4 6 6 5 4 3 4 1
14 8 9 9 8 7 6 8 9 7 5 4 3 3 3 3 3 3 3 4 4 2 2 4 3 1 1 3 3 2 2 1 0 1 2 3 3 4 4 3 2 1 3
13 10 10 9 8 8 8 7 8 9 7 7 4 3 2 2 2 2 2 2 1 3 4 4 2 2 2 2 2 1 1 2 2 4 3 3 3 2 3 1 1 0 2
5 9 7 6 7 6 7 4 1 5 7 9 6 6 4 3 3 2 2 4 6 4 5 4 2 1 1 3 3 2 3 3 4 2 3 5 3 3 3 2 1 2 3
6 2 8 8 6 5 5 7 6 3 2 3 6 6 4 3 3 3 5 4 4 3 3 2 2 1 1 2 2 2 2 2 2 2 2 2 3 3 5 5 4 2 2
8 6 8 8 7 7 5 4 7 6 7 4 3 5 7 6 5 3 3 3 2 3 4 3 2 2 2 2 2 2 2 3 2 3 4 5 3 2 3 3 4 3 3
8 9 9 9 8 8 7 4 6 6 7 7 7 5 6 8 8 5 3 3 2 2 3 3 2 2 2 3 3 3 4 4 3 4 5 5 6 4 3 4 3 4 3
4 1 4 1 8 12 11 7 6 7 7 7 7 6 8 5 4 5 3 2 2 3 4 4 3 3 3 3 4 3 4 4 3 2 4 2 2 3 3 3 4 1 3
7 6 3 2 3 6 7 8 8 7 7 8 6 6 4 9 5 6 4 3 4 3 4 2 1 2 2 3 4 3 3 3 1 3 2 1 2 2 1 1 2 3 4
7 5 5 2 1 3 7 8 7 7 6 5 5 3 8 8 6 5 5 5 5 4 2 2 2 2 2 2 3 3 3 3 2 2 2 2 1 1 2 1 2 1 1
4 4 4 2 2 2 5 6 7 8 7 6 6 6 3 6 6 5 5 5 4 4 3 2 1 1 2 3 3 1 3 1 1 1 2 1 1 2 2 3 3 2 1
5 2 2 2 3 2 5 6 5 8 6 6 6 7 7 6 5 5 5 5 3 4 3 2 1 0 2 3 3 2 2 2 2 2 3 3 3 3 4 3 4 4 4
5 3 5 3 4 3 3 4 5 7 6 6 5 5 5 5 4 5 6 5 3 3 4 1 2 3 3 4 5 4 5 6 6 5 5 5 5 5 4 4 4 3 3
5 3 4 6 7 7 6 6 5 6 4 4 5 6 6 5 5 5 5 4 3 3 3 4 5 5 3 3 3 3 5 6 5 6 5 5 5 5 4 3 4 2 2
8 7 4 6 7 8 7 7 7 7 6 6 4 5 5 5 5 6 4 4 3 4 5 5 3 2 1 1 2 2 4 6 5 5 4 4 6 9 7 3 4 3 2
9 8 7 7 7 9 8 7 7 7 7 7 7 6 6 6 6 5 4 3 3 4 3 2 3 3 1 4 4 5 3 5 6 6 4 5 7 6 8 9 9 7 3
8 10 10 8 8 8 10 10 8 7 8 7 7 7 6 6 6 5 4 4 3 2 3 2 3 3 4 5 5 7 4 5 5 5 4 4 2 4 3 5 7 7 8
8 8 8 11 8 8 9 9 9 8 7 7 7 7 7 6 6 5 5 5 4 4 3 3 3 4 3 6 6 10 6 4 3 4 5 4 2 2 3 2 3 4 6
7 6 8 8 8 5 8 10 8 8 8 8 7 7 7 7 7 6 6 4 4 4 3 2 4 4 5 7 8 9 4 4 3 3 4 4 5 5 4 4 1 2 3
6 7 8 9 8 7 8 11 9 8 7 7 7 7 7 7 7 6 6 4 4 4 4 3 3 7 5 9 8 7 4 4 3 3 3 1 4 4 3 2 2 2 1
6 6 7 7 7 4 6 7 6 6 6 6 6 7 7 6 6 6 4 5 5 5 4 4 3 3 5 6 8 8 3 3 3 3 3 3 3 2 2 2 2 2 1
7 4 6 5 4 5 4 5 6 6 6 6 7 6 6 5 6 7 6 6 6 6 6 5 4 4 5 8 9 9 6 3 3 3 2 3 5 3 3 3 5 1 2
11 2 4 5 2 2 1 4 5 7 6 6 6 6 7 7 7 7 7 6 7 6 5 5 4 4 4 4 10 11 9 6 3 3 4 5 6 4 2 6 5 4 2
12 3 3 6 5 4 4 4 7 7 7 7 7 6 7 6 6 5 5 5 5 5 4 4 4 4 4 4 4 4 4 9 5 4 2 4 5 6 5 4 3 3 3
11 6 5 5 6 6 6 4 6 7 6 6 6 6 6 7 6 6 6 6 6 7 5 4 4 5 4 5 9 8 5 4 6 5 2 2 2 3 3 3 4 4 3
13 11 6 6 6 5 6 5 5 6 6 6 6 6 6 6 5 5 4 11 9 13 13 10 8 4 7 10 13 13 12 12 11 4 3 3 3 4 4 4 4 3 5
Wind_Direction
258 172 147 154 168 170 169 170 167 177 165 168 162 170 191 195 199 228 195 176 173 182 175 193 249 235 233 255 257 229 236 264 248 278 288 273 265 261 246 231 239 295 228
240 154 153 160 167 179 192 170 171 174 180 166 165 160 179 206 188 214 177 165 180 203 167 178 229 328 260 268 275 305 301 284 40 229 344 275 311 275 260 199 123 51 37
236 169 164 170 172 176 174 207 177 175 177 168 159 180 96 62 98 139 136 151 168 54 88 83 87 47 41 309 315 5 316 280 288 216 191 289 243 1 342 9 89 210 26
307 129 169 160 172 188 148 119 125 165 180 173 170 160 171 149 201 181 110 102 84 51 42 31 27 199 206 245 257 253 236 227 252 271 232 243 208 254 297 336 307 92 102
246 185 134 162 176 167 176 159 153 146 88 219 159 154 162 166 120 110 116 120 122 115 102 60 37 6 302 281 262 293 263 237 259 273 299 279 249 220 233 272 284 321 143
210 221 169 175 177 149 163 185 161 165 146 152 248 187 170 144 123 129 130 151 142 137 119 85 18 18 341 326 335 312 259 240 231 252 263 266 260 217 203 253 260 252 257
203 200 187 184 167 157 164 189 175 167 162 165 177 194 156 141 149 148 146 143 140 153 164 104 36 3 348 337 315 298 282 246 229 227 236 234 244 227 184 218 220 235 240
355 32 78 7 173 165 162 180 189 170 172 166 159 151 115 111 92 96 110 121 92 88 100 75 38 348 358 330 308 293 274 253 261 358 334 287 298 291 201 189 167 232 237
17 353 322 40 5 167 171 174 179 174 175 156 143 139 149 119 139 128 105 94 102 89 64 79 77 3 347 326 314 295 323 5 79 49 333 3 25 16 337 170 183 212 183
19 1 339 187 262 239 167 167 175 161 151 141 140 176 144 119 111 108 139 139 129 120 109 88 55 14 345 335 330 322 1 0 44 68 136 90 101 44 51 66 104 276 140
48 5 333 338 152 138 148 165 161 144 145 141 123 116 103 113 122 140 132 132 117 129 138 118 69 28 8 348 325 180 312 272 125 95 109 102 100 98 45 36 31 62 18
148 176 294 290 150 213 162 160 140 128 149 149 154 159 136 123 124 137 128 117 165 128 102 95 133 109 60 360 5 107 17 246 162 146 117 89 83 75 41 53 46 68 50
1 162 152 201 175 197 159 149 140 145 145 128 139 115 123 131 146 134 130 128 119 137 137 134 105 69 46 38 36 40 71 68 61 52 62 44 80 66 60 52 71 64 59
320 280 171 179 184 184 184 170 161 139 127 129 144 150 152 152 138 126 115 125 128 152 148 91 76 71 42 54 47 63 87 77 62 55 55 64 71 76 83 79 98 101 126
323 305 236 195 187 180 183 171 168 157 151 161 158 152 124 104 94 95 100 102 102 93 93 102 108 113 152 150 135 123 123 120 107 83 60 65 83 91 89 101 66 70 60
321 311 296 208 196 182 177 175 171 167 160 166 175 163 148 134 125 123 112 89 87 100 117 150 149 147 178 150 184 144 131 126 124 111 91 47 41 59 86 79 77 71 88
325 321 319 267 207 191 174 177 176 162 166 176 174 159 156 152 160 160 155 156 148 134 161 160 151 126 109 152 134 130 91 100 112 114 100 97 80 78 52 70 80 74 74
315 311 309 306 247 198 173 157 159 163 163 179 167 158 156 153 154 152 164 170 159 165 168 182 154 121 115 129 126 110 96 96 117 135 132 144 154 147 114 117 86 78 78
313 303 310 309 314 243 156 146 153 158 164 179 172 162 155 155 151 171 179 161 152 154 159 149 140 133 117 148 143 126 120 128 158 158 178 195 163 145 87 94 119 97 134
320 311 315 309 308 304 148 147 159 160 177 170 169 156 151 152 156 181 162 146 147 143 136 111 120 162 156 177 158 142 142 148 169 184 130 114 120 129 120 71 90 80 127
299 313 306 299 311 346 120 128 143 170 160 156 153 148 149 148 143 149 156 150 145 143 151 156 180 158 176 193 179 185 168 179 165 164 183 189 158 160 191 170 81 118 108
311 330 311 307 354 5 118 152 167 158 151 151 148 150 145 138 147 162 156 150 151 164 170 175 194 196 212 205 201 199 192 175 149 174 170 166 170 209 251 253 226 215 112
308 284 289 293 288 291 236 168 172 140 148 150 156 153 145 147 155 167 165 161 167 171 189 188 184 194 205 202 207 204 202 204 180 154 178 179 186 213 263 261 245 215 167
314 287 275 268 242 209 227 224 160 156 158 168 170 157 155 154 162 165 167 166 176 182 189 183 194 203 198 199 199 213 220 216 202 202 193 207 202 210 225 255 244 177 204
303 275 252 255 249 193 202 225 165 160 171 170 166 151 164 182 174 180 176 180 188 192 190 188 186 195 208 211 201 193 196 193 194 174 173 183 205 220 228 229 224 214 216
302 299 247 249 259 219 190 189 174 171 173 174 172 179 180 168 171 179 179 205 201 215 223 209 193 217 205 208 210 210 209 210 204 187 190 203 205 216 219 220 217 206 221